Regional Weather Roundup
Issued by NWS

Home | Current Version | Previous Version | Text Only | Print | Product List | Glossary On
Versions: 1 2 3 4 5 6 7 8 9 10 11 12 13 14 15 16 17 18 19 20 21 22 23 24 25 26 27 28 29 30 31 32 33 34 35 36 37 38 39 40 41 42 43 44 45 46 47 48 49 50
000
ASUS43 KLMK 010610
RWRKY
KENTUCKY REGIONAL WEATHER ROUNDUP
NATIONAL WEATHER SERVICE LOUISVILLE KY
200 AM EDT MON MAY 01 2017

NOTE "FAIR" INDICATES FEW OR NO CLOUDS BELOW 12,000 FEET
WITH NO SIGNIFICANT WEATHER AND/OR OBSTRUCTIONS TO VISIBILITY.

KYZ001>023-026-027-061>063-070>075-010700-
WESTERN AND SOUTH CENTRAL KENTUCKY

CITY           SKY/WX    TMP DP  RH WIND       PRES   REMARKS
PADUCAH        CLEAR     59  46  62 SW9G17    29.69R
HENDERSON        N/A    N/A N/A N/A MISG        N/A
OWENSBORO      LGT RAIN  61  58  90 SW22G41   29.66R
HOPKINSVILLE   LGT RAIN  61  59  94 SW16      29.72R
BOWLING GREEN  LGT RAIN  68  65  90 S15G28    29.72F
GLASGOW        CLOUDY    67  62  83 S12       29.75R
$$

KYZ024-025-028>034-038-045-046-053-010700-
NORTH CENTRAL KENTUCKY

CITY           SKY/WX    TMP DP  RH WIND       PRES   REMARKS
LOUISVILLE/SDF LGT RAIN  70  63  78 S15G26    29.69F
LOUISVILLE/LOU LGT RAIN  70  64  81 S12G18    29.69F
FORT KNOX      LGT RAIN  66  63  88 S16       29.67F
$$

KYZ035>037-039>044-047>052-055>060-089>105-010700-
NORTHEAST KENTUCKY

CITY           SKY/WX    TMP DP  RH WIND       PRES   REMARKS
LEXINGTON      CLOUDY    70  61  73 S15       29.77S
COVINGTON      CLOUDY    70  62  76 S24       29.73F
FRANKFORT      LGT RAIN  70  62  76 S10       29.75F
$$

KYZ054-064>069-076>088-106>120-010700-
SOUTHEAST KENTUCKY

CITY           SKY/WX    TMP DP  RH WIND       PRES   REMARKS
JACKSON        CLOUDY    73  57  57 SE8       29.82F
LONDON         CLOUDY    70  60  70 S17G26    29.83S
SOMERSET       CLOUDY    66  61  82 S3        29.83S
MIDDLESBORO    CLOUDY    68  62  81 S7        29.88F
MONTICELLO     CLOUDY    69  62  78 S13G20    29.82F
$$




USA.gov is the U.S. government's official web portal to all federal, state and local government web resources and services.